GLOBALSTAR M057 [-]

Last updated on Thu Dec 28 2023 00:02:57 GMT+0000 (Coordinated Universal Time)

1 25943U 99058A 23361.48074052 -.00000088 00000+0 42864-4 0 9993 2 25943 51.9995 74.1412 0002013 351.4055 8.6760 12.24780584101045

Satellite not in orbit

GLOBALSTAR M057 [-]